E22ZMG-1 Weather Reports


Display with metric or nautical units.
time (UTC)temp
F
wind
direction
speed
MPH
gust
MPH
rain 1hr
in
rain 24hr
in
rain mn
in
humidity
%
barometer
mb
20260508130409 98 0 0.0 0.0 0.00 0.00 0.00 45 973.0
20260508125344 98 0 0.0 0.0 0.00 0.00 0.00 45 973.0
20260508124319 98 0 0.0 0.0 0.00 0.00 0.00 46 973.0
20260508123252 100 0 0.0 0.0 0.00 0.00 0.00 45 973.0
20260508122226 100 0 0.0 0.0 0.00 0.00 0.00 39 973.0
20260508121200 99 0 0.0 0.0 0.00 0.00 0.00 40 972.0
20260508120134 101 0 0.0 0.0 0.00 0.00 0.00 40 973.0
20260508115109 101 0 0.0 0.0 0.00 0.00 0.00 40 972.0
20260508114043 102 0 0.0 0.0 0.00 0.00 0.00 39 972.0
20260508113018 102 0 0.0 0.0 0.00 0.00 0.00 39 972.0
20260508111952 103 0 0.0 0.0 0.00 0.00 0.00 39 972.0
20260508110925 102 0 0.0 0.0 0.00 0.00 0.00 39 972.0
20260508105900 102 0 0.0 0.0 0.00 0.00 0.00 39 971.0
20260508104834 104 0 0.0 0.0 0.00 0.00 0.00 37 971.0
20260508103809 105 0 0.0 0.0 0.00 0.00 0.00 35 971.0
20260508102743 106 0 0.0 0.0 0.00 0.00 0.00 33 971.0
20260508101716 106 0 0.0 0.0 0.00 0.00 0.00 33 971.0
20260508100650 107 0 0.0 0.0 0.00 0.00 0.00 32 971.0
20260508095624 106 0 0.0 0.0 0.00 0.00 0.00 32 971.0
20260508094558 105 0 0.0 0.0 0.00 0.00 0.00 33 971.0
20260508093532 107 0 0.0 0.0 0.00 0.00 0.00 32 971.0
20260508092506 107 0 0.0 0.0 0.00 0.00 0.00 32 971.0
20260508091440 106 0 0.0 0.0 0.00 0.00 0.00 32 971.0
20260508090415 107 0 0.0 0.0 0.00 0.00 0.00 33 971.0
20260508085350 107 0 0.0 0.0 0.00 0.00 0.00 33 971.0
20260508084324 105 0 0.0 0.0 0.00 0.00 0.00 34 971.0
20260508083259 107 0 0.0 0.0 0.00 0.00 0.00 32 971.0
20260508082235 106 0 0.0 0.0 0.00 0.00 0.00 33 972.0
20260508081210 107 0 0.0 0.0 0.00 0.00 0.00 32 972.0
20260508080145 106 0 0.0 0.0 0.00 0.00 0.00 33 972.0
20260508075119 105 0 0.0 0.0 0.00 0.00 0.00 33 972.0
20260508074053 106 0 0.0 0.0 0.00 0.00 0.00 32 972.0
20260508073028 106 0 0.0 0.0 0.00 0.00 0.00 33 972.0
20260508072003 106 0 0.0 0.0 0.00 0.00 0.00 33 973.0
20260508070937 105 0 0.0 0.0 0.00 0.00 0.00 33 973.0
20260508065911 103 0 0.0 0.0 0.00 0.00 0.00 36 973.0
20260508064844 104 0 0.0 0.0 0.00 0.00 0.00 36 974.0
20260508063818 103 0 0.0 0.0 0.00 0.00 0.00 38 974.0
20260508062751 100 0 0.0 0.0 0.00 0.00 0.00 41 974.0
20260508061727 101 0 0.0 0.0 0.00 0.00 0.00 42 974.0
20260508060702 99 0 0.0 0.0 0.00 0.00 0.00 43 975.0
20260508055637 100 0 0.0 0.0 0.00 0.00 0.00 44 975.0
20260508054612 100 0 0.0 0.0 0.00 0.00 0.00 46 975.0
20260508053546 99 0 0.0 0.0 0.00 0.00 0.00 47 975.0
20260508052520 97 0 0.0 0.0 0.00 0.00 0.00 49 976.0
20260508051454 97 0 0.0 0.0 0.00 0.00 0.00 50 976.0
20260508050430 95 0 0.0 0.0 0.00 0.00 0.00 52 976.0
20260508045401 95 0 0.0 0.0 0.00 0.00 0.00 52 977.0
20260508044334 95 0 0.0 0.0 0.00 0.00 0.00 52 977.0
20260508043308 94 0 0.0 0.0 0.00 0.00 0.00 54 977.0
20260508042242 94 0 0.0 0.0 0.00 0.00 0.00 53 977.0
20260508041214 94 0 0.0 0.0 0.00 0.00 0.00 53 977.0
20260508040147 94 0 0.0 0.0 0.00 0.00 0.00 55 977.0
20260508035122 94 0 0.0 0.0 0.00 0.00 0.00 56 977.0
20260508034056 93 0 0.0 0.0 0.00 0.00 0.00 57 977.0
20260508033030 92 0 0.0 0.0 0.00 0.00 0.00 57 977.0
20260508032004 92 0 0.0 0.0 0.00 0.00 0.00 58 977.0
20260508030937 93 0 0.0 0.0 0.00 0.00 0.00 55 978.0
20260508025911 94 0 0.0 0.0 0.00 0.00 0.00 55 978.0
20260508024846 92 0 0.0 0.0 0.00 0.00 0.00 58 978.0
20260508023820 93 0 0.0 0.0 0.00 0.00 0.00 56 978.0
20260508022755 93 0 0.0 0.0 0.00 0.00 0.00 56 978.0
20260508021730 92 0 0.0 0.0 0.00 0.00 0.00 57 978.0
20260508020705 91 0 0.0 0.0 0.00 0.00 0.00 59 977.0
20260508015641 92 0 0.0 0.0 0.00 0.00 0.00 58 977.0
20260508014616 91 0 0.0 0.0 0.00 0.00 0.00 62 977.0
20260508013550 91 0 0.0 0.0 0.00 0.00 0.00 61 977.0
20260508012525 91 0 0.0 0.0 0.00 0.00 0.00 61 977.0
20260508011500 90 0 0.0 0.0 0.00 0.00 0.00 63 977.0
20260508010434 89 0 0.0 0.0 0.00 0.00 0.00 65 977.0
20260508005409 90 0 0.0 0.0 0.00 0.00 0.00 64 977.0
20260508003458 89 0 0.0 0.0 0.00 0.00 0.00 65 977.0
20260508002432 88 0 0.0 0.0 0.00 0.00 0.00 65 977.0
20260508001407 89 0 0.0 0.0 0.00 0.00 0.00 64 977.0
20260508000342 88 0 0.0 0.0 0.00 0.00 0.00 64 976.0
20260507235318 88 0 0.0 0.0 0.00 0.00 0.00 66 976.0
20260507234253 89 0 0.0 0.0 0.00 0.00 0.00 63 976.0
20260507233227 88 0 0.0 0.0 0.00 0.00 0.00 64 976.0
20260507232201 88 0 0.0 0.0 0.00 0.00 0.00 65 976.0
20260507231136 88 0 0.0 0.0 0.00 0.00 0.00 64 976.0
20260507230111 89 0 0.0 0.0 0.00 0.00 0.00 64 976.0
20260507225045 88 0 0.0 0.0 0.00 0.00 0.00 63 975.0
20260507224020 88 0 0.0 0.0 0.00 0.00 0.00 64 975.0
20260507222955 87 0 0.0 0.0 0.00 0.00 0.00 65 975.0
20260507221930 87 0 0.0 0.0 0.00 0.00 0.00 65 975.0
20260507220906 86 0 0.0 0.0 0.00 0.00 0.00 69 975.0
20260507215840 87 0 0.0 0.0 0.00 0.00 0.00 67 975.0
20260507214815 87 0 0.0 0.0 0.00 0.00 0.00 67 975.0
20260507213750 86 0 0.0 0.0 0.00 0.00 0.00 68 975.0
20260507212725 85 0 0.0 0.0 0.00 0.00 0.00 70 975.0
20260507211700 86 0 0.0 0.0 0.00 0.00 0.00 69 975.0
20260507210635 86 0 0.0 0.0 0.00 0.00 0.00 68 975.0
20260507205608 87 0 0.0 0.0 0.00 0.00 0.00 67 975.0
20260507204543 86 0 0.0 0.0 0.00 0.00 0.00 69 975.0
20260507203519 87 0 0.0 0.0 0.00 0.00 0.00 67 975.0
20260507202453 87 0 0.0 0.0 0.00 0.00 0.00 66 975.0
20260507201428 87 0 0.0 0.0 0.00 0.00 0.00 65 975.0
20260507200403 86 0 0.0 0.0 0.00 0.00 0.00 68 975.0
20260507195338 85 0 0.0 0.0 0.00 0.00 0.00 70 975.0
20260507194313 86 0 0.0 0.0 0.00 0.00 0.00 69 975.0
20260507193248 87 0 0.0 0.0 0.00 0.00 0.00 67 975.0
20260507192222 87 0 0.0 0.0 0.00 0.00 0.00 67 975.0
20260507191156 87 0 0.0 0.0 0.00 0.00 0.00 66 975.0
20260507190130 88 0 0.0 0.0 0.00 0.00 0.00 65 975.0
20260507185106 88 0 0.0 0.0 0.00 0.00 0.00 64 975.0
20260507184041 88 0 0.0 0.0 0.00 0.00 0.00 64 976.0
20260507183015 90 0 0.0 0.0 0.00 0.00 0.00 59 976.0
20260507181949 91 0 0.0 0.0 0.00 0.00 0.00 58 976.0
20260507180925 91 0 0.0 0.0 0.00 0.00 0.00 58 976.0
20260507175859 90 0 0.0 0.0 0.00 0.00 0.00 60 976.0
20260507174834 91 0 0.0 0.0 0.00 0.00 0.00 59 976.0
20260507173810 90 0 0.0 0.0 0.00 0.00 0.00 60 976.0
20260507172744 91 0 0.0 0.0 0.00 0.00 0.00 60 976.0
20260507171720 91 0 0.0 0.0 0.00 0.00 0.00 60 976.0
20260507170654 91 0 0.0 0.0 0.00 0.00 0.00 59 976.0
20260507165628 92 0 0.0 0.0 0.00 0.00 0.00 58 976.0
20260507164603 90 0 0.0 0.0 0.00 0.00 0.00 60 976.0
20260507163537 90 0 0.0 0.0 0.00 0.00 0.00 61 977.0
20260507162513 90 0 0.0 0.0 0.00 0.00 0.00 62 977.0
20260507161448 89 0 0.0 0.0 0.00 0.00 0.00 64 976.0
20260507160423 90 0 0.0 0.0 0.00 0.00 0.00 62 976.0
20260507155358 90 0 0.0 0.0 0.00 0.00 0.00 63 977.0
20260507154333 90 0 0.0 0.0 0.00 0.00 0.00 61 976.0
20260507153912 90 0 0.0 0.0 0.00 0.00 0.00 61 977.0
20260507144738 91 0 0.0 0.0 0.00 0.00 0.00 54 975.0
20260507143713 93 0 0.0 0.0 0.00 0.00 0.00 51 975.0
20260507142648 94 0 0.0 0.0 0.00 0.00 0.00 50 975.0
20260507141622 95 0 0.0 0.0 0.00 0.00 0.00 49 975.0
20260507140557 95 0 0.0 0.0 0.00 0.00 0.00 48 974.0
20260507135531 97 0 0.0 0.0 0.00 0.00 0.00 42 974.0
20260507134507 97 0 0.0 0.0 0.00 0.00 0.00 43 973.0
20260507133442 97 0 0.0 0.0 0.00 0.00 0.00 43 973.0
20260507132417 97 0 0.0 0.0 0.00 0.00 0.00 43 973.0
20260507131352 98 0 0.0 0.0 0.00 0.00 0.00 41 972.0